Zurück zum Katalog

STARLINK-11431

AktivKommunikationVLEO
NORAD 62890·PAYLOAD·🇺🇸 United States

Gestartet Feb 4, 2025 von Cape Canaveral Space Force Station

Loading…

Nächste Überflüge (nächste 24 Stunden)

TLE

AktuellSource: CelesTrak SupGP

Epoche: Sep 15, 2026, 03:15 UTC

1 62890C 25024M   26258.13590278  .00107680  00000+0  83586-3 0  2588
2 62890  43.0003 119.9751 0001646 274.5848 194.3486 15.70799353    10

Verfolge STARLINK-11431 in Echtzeit mit AllMySat

Download on the App Store